When you browse on this site, cookies collect data to enhance your experience and personalize the content and advertising you see.
Visit our Privacy Policy to learn more. By continuing to use the site, you agree to this use of cookies and data.
  • In Hungary
  • List of Countries
  • For 7 days
  • Water Temperature
  • Satellite Maps
  • Weather Map
  • News
  • Weather Widgets
  • user-avatar
    Login

    Hourly Weather Stoki

    Today, 24 January, Thursday

    Time Temperature Precipitation Wind Pressure Humidity
    00:00 -10°C° 0 mm 4 mps 736 mmHg 82%
    01:00 -10°C° 0 mm 4 mps 736 mmHg 85%
    02:00 -10°C° 0 mm 4 mps 736 mmHg 85%
    03:00 -10°C° 0 mm 4 mps 737 mmHg 85%
    04:00 -10°C° 0 mm 4 mps 737 mmHg 85%
    05:00 -10°C° 0 mm 4 mps 737 mmHg 84%
    06:00 -11°C° 0 mm 5 mps 737 mmHg 83%
    07:00 -11°C° 0 mm 5 mps 737 mmHg 82%
    08:00 -11°C° 0 mm 5 mps 737 mmHg 81%
    09:00 -10°C° 0 mm 5 mps 738 mmHg 80%
    10:00 -10°C° 0 mm 5 mps 738 mmHg 79%
    11:00 -10°C° 0 mm 5 mps 738 mmHg 78%
    12:00 -8°C° 0 mm 5 mps 738 mmHg 77%
    13:00 -8°C° 0 mm 5 mps 738 mmHg 76%
    14:00 -8°C° 0 mm 5 mps 738 mmHg 78%
    15:00 -8°C° 0 mm 5 mps 738 mmHg 79%
    16:00 -10°C° 0 mm 5 mps 738 mmHg 80%
    17:00 -10°C° 0 mm 5 mps 738 mmHg 81%
    18:00 -10°C° 0 mm 6 mps 738 mmHg 82%
    19:00 -10°C° 0 mm 6 mps 738 mmHg 83%
    20:00 -10°C° 0.1 mm 6 mps 738 mmHg 83%
    21:00 -10°C° 0.1 mm 6 mps 738 mmHg 83%
    22:00 -11°C° 0.1 mm 6 mps 738 mmHg 84%
    23:00 -11°C° 0.3 mm 6 mps 738 mmHg 86%

    Tomorrow, 25 January, Friday

    Time Temperature Precipitation Wind Pressure Humidity
    00:00 -10°C° 0.3 mm 6 mps 738 mmHg 87%
    01:00 -10°C° 0.3 mm 5 mps 738 mmHg 89%
    02:00 -10°C° 0.2 mm 5 mps 738 mmHg 88%
    03:00 -10°C° 0.2 mm 5 mps 738 mmHg 88%
    04:00 -9°C° 0.2 mm 4 mps 738 mmHg 88%
    05:00 -10°C° 0.1 mm 4 mps 738 mmHg 88%
    06:00 -10°C° 0.1 mm 4 mps 738 mmHg 88%
    07:00 -9°C° 0.1 mm 3 mps 738 mmHg 88%
    08:00 -8°C° 0.1 mm 3 mps 738 mmHg 87%
    09:00 -7°C° 0.1 mm 2 mps 738 mmHg 87%
    10:00 -7°C° 0.1 mm 2 mps 738 mmHg 86%
    11:00 -6°C° 0.1 mm 1 mps 739 mmHg 85%
    12:00 -4°C° 0.1 mm 1 mps 739 mmHg 84%
    13:00 -5°C° 0.1 mm 0 mps 739 mmHg 83%
    14:00 -4°C° 0.1 mm 1 mps 739 mmHg 84%
    15:00 -4°C° 0.1 mm 1 mps 739 mmHg 85%
    16:00 -4°C° 0.1 mm 1 mps 739 mmHg 85%
    17:00 -6°C° 0 mm 2 mps 739 mmHg 87%
    18:00 -6°C° 0 mm 2 mps 740 mmHg 88%
    19:00 -7°C° 0 mm 2 mps 740 mmHg 89%
    20:00 -7°C° 0 mm 2 mps 740 mmHg 90%
    21:00 -7°C° 0 mm 2 mps 740 mmHg 91%
    22:00 -7°C° 0 mm 2 mps 741 mmHg 91%
    23:00 -8°C° 0 mm 3 mps 740 mmHg 90%

    Day after tomorrow, 26 January, Saturday

    Time Temperature Precipitation Wind Pressure Humidity
    00:00 -8°C° 0 mm 3 mps 740 mmHg 89%
    01:00 -7°C° 0 mm 3 mps 740 mmHg 88%
    02:00 -8°C° 0 mm 3 mps 739 mmHg 89%
    03:00 -8°C° 0 mm 3 mps 739 mmHg 89%
    04:00 -9°C° 0 mm 3 mps 739 mmHg 90%
    05:00 -9°C° 0 mm 3 mps 738 mmHg 89%
    06:00 -9°C° 0 mm 3 mps 738 mmHg 88%
    07:00 -8°C° 0 mm 3 mps 737 mmHg 87%
    08:00 -9°C° 0 mm 4 mps 736 mmHg 84%
    09:00 -8°C° 0 mm 4 mps 736 mmHg 81%
    10:00 -7°C° 0 mm 5 mps 735 mmHg 79%
    11:00 -6°C° 0.5 mm 5 mps 734 mmHg 83%
    12:00 -6°C° 0.5 mm 5 mps 733 mmHg 88%
    13:00 -5°C° 0.5 mm 5 mps 732 mmHg 93%
    14:00 -4°C° 0.5 mm 5 mps 731 mmHg 93%
    15:00 -4°C° 0.5 mm 5 mps 731 mmHg 92%
    16:00 -2°C° 0.5 mm 5 mps 731 mmHg 92%
    17:00 -2°C° 0 mm 4 mps 731 mmHg 93%
    18:00 -2°C° 0 mm 4 mps 731 mmHg 94%
    19:00 -1°C° 0 mm 3 mps 731 mmHg 95%
    20:00 -2°C° 0 mm 3 mps 731 mmHg 95%
    21:00 -2°C° 0 mm 3 mps 731 mmHg 95%
    22:00 -2°C° 0 mm 3 mps 732 mmHg 95%
    23:00 -2°C° 0.1 mm 3 mps 732 mmHg 95%

    27 January, Sunday

    Time Temperature Precipitation Wind Pressure Humidity
    00:00 -2°C° 0.1 mm 3 mps 732 mmHg 95%
    01:00 -2°C° 0.1 mm 3 mps 732 mmHg 95%
    02:00 -2°C° 0 mm 3 mps 732 mmHg 95%
    03:00 -2°C° 0 mm 2 mps 732 mmHg 96%
    04:00 -2°C° 0 mm 2 mps 732 mmHg 96%
    05:00 -1°C° 0.1 mm 2 mps 732 mmHg 96%
    06:00 -1°C° 0.1 mm 2 mps 732 mmHg 96%
    07:00 +1°C° 0.1 mm 1 mps 732 mmHg 96%
    08:00 -1°C° 0 mm 2 mps 731 mmHg 97%
    09:00 +1°C° 0 mm 2 mps 731 mmHg 98%
    10:00 +1°C° 0 mm 2 mps 731 mmHg 99%
    11:00 +1°C° 0.2 mm 2 mps 731 mmHg 99%
    12:00 0°C° 0.2 mm 3 mps 730 mmHg 99%
    13:00 0°C° 0.2 mm 3 mps 730 mmHg 99%
    14:00 0°C° 0.3 mm 3 mps 729 mmHg 98%
    15:00 0°C° 0.3 mm 3 mps 729 mmHg 97%
    16:00 0°C° 0.3 mm 3 mps 729 mmHg 96%
    17:00 0°C° 0 mm 3 mps 729 mmHg 96%
    18:00 0°C° 0 mm 3 mps 728 mmHg 95%
    19:00 0°C° 0 mm 3 mps 728 mmHg 95%
    20:00 0°C° 0 mm 3 mps 728 mmHg 94%
    21:00 +1°C° 0 mm 2 mps 728 mmHg 93%
    22:00 -1°C° 0 mm 2 mps 728 mmHg 92%
    23:00 -1°C° 0 mm 2 mps 728 mmHg 91%

    28 January, Monday

    Time Temperature Precipitation Wind Pressure Humidity
    00:00 -1°C° 0 mm 2 mps 727 mmHg 91%
    01:00 -1°C° 0 mm 2 mps 727 mmHg 90%
    02:00 -1°C° 0 mm 2 mps 727 mmHg 90%
    03:00 -1°C° 0 mm 2 mps 726 mmHg 89%
    04:00 -1°C° 0 mm 2 mps 726 mmHg 89%
    05:00 -2°C° 0 mm 2 mps 726 mmHg 89%
    06:00 -2°C° 0 mm 2 mps 726 mmHg 88%
    07:00 -2°C° 0 mm 2 mps 725 mmHg 88%
    08:00 -1°C° 0 mm 2 mps 725 mmHg 88%
    09:00 -1°C° 0 mm 2 mps 726 mmHg 88%
    10:00 +1°C° 0 mm 2 mps 726 mmHg 88%
    11:00 +1°C° 0 mm 2 mps 725 mmHg 91%
    12:00 0°C° 0 mm 3 mps 725 mmHg 93%
    13:00 +1°C° 0 mm 3 mps 725 mmHg 96%
    14:00 +2°C° 0.3 mm 2 mps 725 mmHg 95%
    15:00 +1°C° 0.3 mm 2 mps 725 mmHg 94%
    16:00 +2°C° 0.3 mm 1 mps 725 mmHg 94%
    17:00 +1°C° 0.3 mm 2 mps 725 mmHg 93%
    18:00 +1°C° 0.3 mm 2 mps 725 mmHg 93%
    19:00 +1°C° 0.3 mm 2 mps 725 mmHg 92%
    20:00 0°C° 0 mm 3 mps 725 mmHg 92%
    21:00 -1°C° 0 mm 3 mps 725 mmHg 92%
    22:00 -2°C° 0 mm 4 mps 726 mmHg 91%
    23:00 -2°C° 0 mm 4 mps 726 mmHg 91%

    29 January, Tuesday

    Time Temperature Precipitation Wind Pressure Humidity
    00:00 -2°C° 0 mm 4 mps 726 mmHg 91%
    01:00 -2°C° 0 mm 4 mps 726 mmHg 91%
    02:00 -2°C° 0 mm 4 mps 727 mmHg 91%
    03:00 -1°C° 0 mm 5 mps 727 mmHg 91%
    04:00 -1°C° 0 mm 5 mps 727 mmHg 90%
    05:00 -1°C° 0 mm 5 mps 728 mmHg 89%
    06:00 -2°C° 0 mm 6 mps 729 mmHg 88%
    07:00 -2°C° 0 mm 6 mps 729 mmHg 86%
    08:00 -2°C° 0.1 mm 6 mps 730 mmHg 87%
    09:00 -2°C° 0.1 mm 6 mps 731 mmHg 88%
    10:00 -2°C° 0.1 mm 7 mps 732 mmHg 88%
    11:00 -2°C° 0.1 mm 6 mps 733 mmHg 86%
    12:00 -3°C° 0.1 mm 6 mps 733 mmHg 84%
    13:00 -3°C° 0.1 mm 6 mps 734 mmHg 82%
    14:00 -2°C° 0 mm 5 mps 734 mmHg 82%
    15:00 -3°C° 0 mm 4 mps 735 mmHg 83%
    16:00 -2°C° 0 mm 3 mps 735 mmHg 83%
    17:00 -4°C° 0 mm 3 mps 735 mmHg 84%
    18:00 -4°C° 0 mm 3 mps 736 mmHg 84%
    19:00 -4°C° 0 mm 3 mps 736 mmHg 85%
    20:00 -4°C° 0 mm 4 mps 736 mmHg 85%
    21:00 -4°C° 0 mm 4 mps 736 mmHg 85%
    22:00 -4°C° 0 mm 4 mps 737 mmHg 85%
    23:00 -4°C° 0 mm 4 mps 736 mmHg 85%
    Show more